Probability
0 0 0 0 0 0 0 0 0 0 0 0 0 0 0 0 0 0 0 0 0 0 0 0 0 0 0 0 0 0 0 0 0 0 0 0 0 0
0 0 0 0 0 0 0 0 0 0 0 0 0 0 0 0 0 0 0 0 0 0 0 0 0 0 0 0 0 0 0 0 0 0 0 0 0 0
0 0 0 0 0 0 0 0 0 0 0 0 0 0 0 0 0 0 0 0 0 0 0 0 0 0 0 0 0 0 0 0 0 0 0 0 0 0
0 0 0 0 0 0 0 0 0 0 0 0 0 0 0 0 0 0 0 0 0 0 0 0 0 0 0 0 0 0 0 0 0 0 0 0 0 0
0 0 0 0 0 0 0 0 0 0 0 0 0 0 0 0 0 0 0 0 0 0 0 0 0 0 0 0 0 0 0 0 0 0 0 0 0 0
0 0 0 0 0 0 0 0 0 0 0 0 0 0 0 0 0 0 0 0 0 0 0 0 0 0 0 0 0 0 0 0 0 0 0 0 0 0
0 0 0 0 0 0 0 0 0 0 0 0 0 0 0 0 0 0 0 0 0 0 0 0 0 0 0 0 0 0 0 0 0 0 0 0 0 0
0 0 0 0 0 0 0 0 0 0 0 0 0 0 0 0 0 0 0 0 0 0 0 0 0 0 0 0 0 0 0 0 0 0 0 0 0 0
0 0 0 0 0 0 0 0 0 0 0 0 0 0 0 0 0 0 0 0 0 0 0 0 0 0 0 0 0 0 0 0 0 0 0 0 0 0
0 0 0 0 0 0 0 0 0 0 0 0 0 0 0 0 0 0 0 0 0 0 0 0 0 0 0 0 0 0 0 0 0 0 0 0 0 0
0 0 0 0 0 0 0 0 0 0 0 0 0 0 0 0 0 0 0 0 0 0 0 0 0 0 0 0 0 0 0 0 0 0 0 0 0 0
0 0 0 0 0 0 0 0 0 0 0 0 0 0 0 0 0 0 0 0 0 0 0 0 0 0 0 0 0 0 0 0 0 0 0 0 0 0
0 0 0 0 0 0 0 0 0 0 0 0 0 0 0 0 0 0 0 0 0 0 0 0 0 0 0 0 0 0 0 0 0 0 0 0 0 0
0 0 0 0 0 0 0 0 0 0 0 0 0 0 0 0 0 0 0 0 0 0 0 0 0 0 0 0 0 0 0 0 0 0 0 0 0 0
0 0 0 0 0 0 0 0 0 0 0 0 0 0 0 0 0 0 0 0 0 0 0 0 0 0 0 0 0 0 0 0 0 0 0 0 0 0
0 0 0 0 0 0 0 0 0 0 0 0 0 0 0 0 0 0 0 0 0 0 0 0 0 0 0 0 0 0 0 0 0 0 0 0 0 0
0 0 0 0 0 0 0 0 0 0 0 0 0 0 0 0 0 0 0 0 0 0 0 0 0 0 0 0 0 0 0 0 0 0 0 0 0 0
0 0 0 0 0 0 0 0 0 0 0 0 0 0 0 0 0 0 0 0 0 0 0 0 0 0 0 0 0 0 0 0 0 0 0 0 0 0
0 0 0 0 0 0 0 0 0 0 0 0 0 0 0 0 0 0 0 0 0 0 0 0 0 0 0 0 0 0 0 0 0 0 0 0 0 0
0 0 0 0 0 0 0 0 0 0 0 0 0 0 0 0 0 0 0 0 0 0 0 0 0 0 0 0 0 0 0 0 0 0 0 0 0 0
0 0 0 0 0 0 0 0 0 0 0 0 0 0 0 0 0 0 0 0 0 0 0 0 0 0 0 0 0 0 0 0 0 0 0 0 0 0
0 0 0 0 0 0 0 0 0 0 0 0 0 0 0 0 0 0 0 0 0 0 0 0 0 0 0 0 0 0 0 0 0 0 0 0 0 0
0 0 0 0 0 0 0 0 0 0 0 0 0 0 0 0 0 0 0 0 0 0 0 0 0 0 0 0 0 0 0 0 0 0 0 0 0 0
Height
5737 5736 5734 5733 5731 5729 5727 5726 5725 5723 5722 5720 5717 5715 5713 5711 5709 5707 5705 5703 5701 5700 5698 5697 5695 5694 5693 5693 5692 5692 5691 5691 5691 5691 5690 5690 5690 5689
5726 5724 5723 5721 5719 5717 5715 5713 5712 5711 5710 5708 5706 5704 5701 5700 5698 5696 5694 5693 5691 5690 5689 5688 5687 5686 5686 5685 5685 5685 5685 5684 5684 5684 5684 5684 5684 5683
5713 5712 5710 5709 5707 5705 5703 5701 5700 5698 5697 5696 5694 5692 5690 5688 5687 5685 5684 5683 5682 5681 5680 5679 5679 5678 5678 5678 5677 5677 5677 5677 5677 5677 5677 5677 5677 5677
5701 5700 5698 5696 5695 5693 5691 5689 5688 5686 5685 5684 5682 5681 5679 5677 5676 5675 5674 5673 5672 5671 5671 5671 5670 5670 5670 5670 5670 5670 5671 5670 5670 5670 5670 5670 5670 5670
5689 5687 5686 5684 5683 5681 5679 5678 5676 5674 5673 5672 5671 5669 5668 5667 5665 5664 5664 5663 5663 5662 5662 5662 5662 5662 5662 5662 5662 5663 5663 5663 5663 5663 5663 5663 5663 5663
5677 5675 5674 5673 5671 5670 5668 5666 5665 5663 5662 5660 5659 5658 5657 5656 5655 5655 5654 5654 5654 5653 5653 5653 5654 5654 5654 5654 5655 5655 5655 5655 5655 5656 5656 5656 5656 5656
5665 5664 5662 5661 5659 5658 5656 5655 5653 5652 5650 5649 5648 5647 5647 5646 5646 5645 5645 5645 5645 5645 5645 5645 5646 5646 5646 5647 5647 5647 5647 5647 5647 5647 5647 5647 5647 5647
5654 5653 5651 5650 5648 5647 5645 5643 5642 5641 5639 5639 5638 5637 5637 5636 5636 5636 5636 5636 5637 5637 5637 5637 5638 5638 5638 5638 5638 5638 5638 5639 5639 5639 5639 5638 5638 5638
5643 5642 5640 5639 5637 5636 5634 5633 5631 5630 5629 5629 5628 5627 5627 5627 5627 5627 5628 5628 5628 5628 5629 5629 5629 5630 5630 5630 5630 5630 5630 5630 5630 5629 5629 5629 5629 5629
5632 5631 5630 5628 5627 5625 5624 5622 5621 5620 5619 5619 5618 5618 5618 5618 5619 5619 5619 5619 5620 5620 5621 5621 5621 5621 5621 5621 5620 5620 5620 5620 5620 5620 5619 5619 5619 5618
5621 5620 5619 5617 5616 5615 5614 5613 5612 5611 5610 5610 5609 5609 5609 5609 5610 5610 5611 5611 5612 5612 5612 5612 5612 5612 5612 5612 5611 5611 5611 5611 5610 5610 5609 5609 5608 5608
5610 5609 5608 5607 5606 5605 5604 5603 5603 5602 5602 5601 5601 5601 5601 5601 5602 5602 5603 5603 5603 5604 5604 5603 5603 5603 5603 5602 5602 5601 5601 5600 5600 5599 5598 5598 5597 5596
5600 5599 5598 5598 5597 5596 5595 5594 5594 5594 5593 5593 5593 5593 5593 5593 5594 5594 5594 5595 5595 5595 5595 5594 5594 5594 5593 5593 5592 5591 5591 5590 5589 5588 5587 5586 5585 5584
5589 5589 5589 5588 5587 5587 5586 5586 5585 5585 5585 5585 5585 5585 5585 5586 5586 5586 5586 5586 5586 5586 5586 5585 5585 5584 5583 5583 5582 5581 5580 5579 5578 5577 5575 5574 5573 5572
5579 5579 5579 5579 5578 5578 5578 5577 5577 5577 5577 5577 5577 5577 5578 5578 5578 5578 5578 5578 5577 5577 5576 5576 5575 5574 5573 5572 5571 5570 5569 5567 5566 5565 5563 5562 5560 5559
5569 5570 5570 5570 5570 5569 5569 5569 5569 5569 5569 5569 5569 5570 5570 5570 5570 5570 5570 5569 5569 5568 5567 5566 5565 5564 5563 5561 5560 5558 5557 5556 5554 5553 5551 5549 5547 5546
5560 5560 5561 5561 5561 5561 5561 5561 5561 5561 5561 5562 5562 5562 5562 5562 5562 5561 5561 5560 5559 5558 5558 5556 5555 5553 5552 5550 5548 5546 5545 5543 5542 5540 5538 5536 5534 5533
5550 5551 5551 5552 5552 5553 5553 5553 5554 5554 5554 5554 5554 5554 5554 5554 5553 5552 5552 5551 5550 5549 5547 5546 5544 5543 5541 5538 5537 5534 5532 5531 5529 5527 5525 5523 5520 5518
5540 5541 5542 5543 5544 5544 5545 5545 5546 5546 5546 5546 5546 5545 5545 5545 5544 5543 5542 5541 5540 5538 5537 5535 5533 5531 5529 5527 5524 5522 5520 5518 5516 5513 5511 5509 5506 5503
5530 5531 5532 5534 5535 5535 5536 5537 5537 5537 5537 5537 5537 5536 5536 5535 5534 5533 5532 5531 5530 5528 5526 5524 5523 5520 5518 5515 5512 5509 5507 5505 5502 5500 5498 5496 5493 5490
5520 5521 5523 5524 5525 5526 5527 5528 5528 5528 5528 5528 5528 5527 5526 5526 5525 5523 5522 5521 5519 5517 5515 5513 5511 5509 5506 5503 5500 5497 5494 5491 5489 5487 5484 5482 5479 5476
5509 5511 5513 5514 5516 5517 5518 5518 5519 5519 5519 5518 5518 5517 5517 5516 5514 5513 5512 5510 5509 5507 5504 5502 5500 5497 5494 5491 5488 5484 5481 5478 5475 5473 5470 5468 5465 5462
5499 5501 5503 5504 5506 5507 5508 5509 5509 5509 5509 5509 5508 5507 5506 5505 5504 5503 5501 5500 5498 5496 5493 5490 5488 5485 5481 5478 5475 5472 5468 5464 5461 5458 5455 5452 5451 5448
Wind_Speed
48 48 48 47 48 48 48 48 47 46 45 45 45 45 45 44 43 42 41 40 38 37 34 33 31 29 28 26 25 24 23 22 21 20 19 19 19 19
50 50 50 49 49 49 49 49 48 48 47 46 46 46 45 44 43 42 40 39 37 35 33 32 30 28 27 26 25 23 23 22 21 21 20 19 19 19
50 50 49 50 50 49 49 49 48 48 48 47 46 45 44 43 42 41 38 37 36 34 32 31 29 28 27 26 24 23 22 22 22 21 21 20 20 20
49 49 49 49 49 48 48 48 48 47 47 46 45 45 44 43 41 39 37 36 34 32 31 30 29 28 27 25 24 23 23 22 22 22 22 21 21 21
48 47 47 47 47 47 47 46 46 46 46 45 44 43 42 41 39 37 35 34 32 32 31 30 28 27 26 25 25 24 24 23 23 23 23 23 23 23
46 46 46 46 46 46 45 45 45 45 44 44 42 41 40 38 36 35 34 33 32 30 29 28 27 26 25 25 25 25 25 25 25 24 24 24 24 25
45 45 44 44 44 44 44 44 44 43 42 41 40 38 37 35 34 33 32 31 30 29 28 27 27 26 26 26 26 26 26 26 26 26 26 26 26 26
43 43 43 43 43 43 43 43 42 41 40 39 38 36 35 33 32 32 31 30 29 28 27 27 26 26 27 27 27 27 27 27 27 27 27 27 28 28
42 42 42 41 41 41 41 40 39 38 37 37 36 35 33 32 32 31 30 29 28 27 27 27 27 27 28 28 28 28 28 28 28 29 29 29 30 30
41 41 41 40 40 39 39 38 37 36 35 34 33 33 32 32 31 30 29 29 28 27 27 28 28 28 28 28 28 29 29 29 29 30 30 31 31 32
40 39 39 38 37 37 36 35 34 33 33 32 32 31 31 31 31 30 29 28 28 28 28 28 28 29 29 29 29 30 30 30 31 31 32 33 33 34
39 38 37 36 35 34 34 33 32 31 31 30 30 30 30 30 30 29 28 28 28 28 28 29 29 29 29 30 30 31 31 32 33 33 34 35 35 36
37 36 36 35 33 33 32 31 31 31 30 30 29 29 28 28 28 28 28 28 28 28 29 29 30 30 31 31 32 32 33 33 34 35 36 36 36 37
35 35 34 33 32 31 30 29 29 29 28 28 28 27 27 27 27 27 28 28 29 29 30 30 31 31 32 33 34 34 35 36 36 36 37 37 37 37
34 33 32 31 30 30 29 28 28 27 26 26 26 26 26 26 27 28 28 29 29 30 30 31 32 32 33 34 36 36 37 37 37 37 38 38 38 39
33 32 31 30 29 28 28 27 26 26 26 26 26 26 26 26 27 27 28 29 30 30 31 31 32 34 34 36 37 37 38 38 38 38 39 39 40 40
32 31 30 30 28 27 26 26 26 25 25 25 25 26 26 26 27 28 28 29 30 31 32 33 34 35 36 36 37 38 38 39 39 39 40 40 41 41
32 31 30 29 28 27 26 26 25 25 24 25 25 26 27 28 28 29 29 30 31 32 33 34 34 35 36 37 38 39 40 40 40 41 41 41 42 42
31 31 30 29 28 27 27 26 26 26 26 26 27 27 28 28 29 29 30 31 32 32 33 34 35 35 36 38 38 40 40 40 40 41 41 41 42 43
31 31 31 30 29 28 28 28 28 27 27 28 28 28 29 29 30 30 31 32 32 33 34 35 35 36 37 38 39 40 40 40 40 40 41 41 42 43
31 31 30 30 29 29 29 29 29 29 29 29 29 30 30 30 31 31 31 32 32 33 35 35 36 37 38 38 39 40 41 41 41 41 41 42 42 43
31 30 30 30 30 29 29 29 29 29 29 30 30 30 30 31 31 31 31 32 33 34 35 36 37 38 38 39 40 40 41 42 42 41 42 42 42 42
32 31 31 31 31 31 30 30 30 30 31 31 31 31 31 31 32 32 33 33 34 35 36 37 38 38 39 40 40 41 42 42 42 42 43 43 42 42
Wind_Direction
282 284 285 285 286 286 287 287 287 287 286 287 286 286 287 288 288 288 289 290 291 291 290 288 288 286 285 284 282 281 281 281 282 282 281 281 281 280
283 284 285 285 286 286 286 286 287 286 286 285 285 286 286 287 287 288 288 289 289 288 287 285 284 283 282 281 279 278 278 279 279 280 280 280 280 279
283 285 285 285 286 285 285 285 285 285 285 284 284 285 285 286 286 286 286 287 287 286 285 283 281 280 279 278 276 276 276 277 278 278 279 279 279 278
284 284 285 286 285 285 285 284 284 284 284 284 284 284 284 285 285 284 284 284 284 282 281 281 279 278 276 274 274 274 274 276 278 278 278 278 278 277
284 285 285 285 285 284 284 284 284 284 284 284 284 284 284 284 284 282 282 281 280 280 279 277 276 274 273 272 273 274 275 276 277 277 277 276 276 275
284 284 285 284 284 284 284 284 284 284 284 284 284 284 283 283 282 281 280 278 278 277 276 275 273 271 271 272 273 274 275 276 276 276 276 275 275 275
284 284 284 284 284 284 284 284 284 283 283 283 283 283 282 282 280 279 277 277 276 274 273 272 271 270 271 273 274 274 275 275 275 276 276 276 276 276
283 283 284 284 285 285 285 284 284 284 282 282 281 281 281 280 278 276 275 274 273 272 271 270 270 270 272 273 274 275 275 275 275 276 276 276 276 276
282 283 284 285 285 285 285 285 285 284 283 281 280 279 278 277 275 274 272 272 271 271 271 270 271 272 273 274 274 275 275 275 275 275 276 276 276 276
282 283 284 284 285 285 285 285 284 283 282 281 279 278 276 275 274 272 270 270 269 269 270 271 272 274 275 275 275 275 276 276 276 276 276 277 277 276
282 283 284 284 284 285 284 284 283 282 281 280 278 276 274 273 272 270 269 269 269 270 271 272 274 275 275 275 276 276 277 277 277 277 277 277 277 277
281 282 282 283 283 283 283 282 281 280 280 279 277 276 274 272 271 270 269 270 271 272 273 275 277 277 277 277 277 277 278 278 278 278 278 278 279 279
279 280 281 281 281 281 281 280 279 279 278 277 276 275 274 273 272 271 271 272 273 275 276 277 278 278 278 278 278 278 279 279 279 280 279 279 279 279
277 278 279 278 278 279 279 279 279 278 277 276 275 274 273 273 273 272 273 274 275 277 278 279 279 280 280 280 280 281 281 281 281 280 280 280 280 279
274 276 276 276 276 277 277 277 277 276 275 274 274 273 273 273 274 275 276 277 278 278 279 280 281 281 282 282 282 282 282 282 281 281 280 280 279 279
272 272 272 273 274 275 274 274 274 274 273 273 273 274 275 276 276 276 278 278 279 280 281 282 282 283 283 284 284 284 283 283 282 282 281 280 280 280
269 269 269 270 271 271 271 271 272 272 273 274 274 274 275 275 276 278 279 280 281 282 283 284 285 286 286 286 285 285 284 284 283 283 282 282 281 281
266 265 265 266 266 267 269 270 270 270 272 274 275 275 276 277 279 280 281 282 283 284 286 286 287 287 287 287 287 286 286 285 285 285 284 283 283 282
262 261 262 263 263 264 266 267 269 271 273 274 275 276 277 279 280 281 282 284 285 286 287 288 288 288 289 289 289 288 288 288 287 286 285 284 284 283
259 258 259 260 261 263 264 267 269 271 273 275 276 277 278 280 281 283 284 285 286 287 289 289 290 290 290 290 290 290 290 290 289 287 287 286 285 284
257 257 256 258 260 263 265 267 269 271 273 275 277 279 280 281 283 285 286 286 287 289 290 291 292 292 292 291 291 291 291 291 290 289 288 288 287 286
255 255 255 257 260 262 265 267 269 271 273 276 278 279 280 282 284 285 286 288 289 291 292 293 293 293 293 293 292 292 292 292 291 291 290 289 288 287
253 254 255 257 260 262 265 267 269 271 274 276 277 279 280 282 284 285 287 288 290 292 293 294 294 294 294 294 294 293 293 293 293 293 292 291 289 288